Regional Weather Roundup
Issued by NWS

Home | Current Version | Previous Version | Text Only | Print | Product List | Glossary On
Versions: 1 2 3 4 5 6 7 8 9 10 11 12 13 14 15 16 17 18 19 20 21 22 23 24 25 26 27 28 29 30 31 32 33 34 35 36 37 38 39 40 41 42 43 44 45 46 47 48 49 50
000
ASUS43 KBIS 271210
RWRND

NORTH DAKOTA REGIONAL WEATHER ROUNDUP
NATIONAL WEATHER SERVICE BISMARCK ND
700 AM CDT FRI MAR 27 2015

NOTE: "FAIR" INDICATES FEW OR NO CLOUDS BELOW 12,000 FEET WITH NO
SIGNIFICANT WEATHER AND/OR OBSTRUCTIONS TO VISIBILITY.


NDZ001>003-009>011-017-271300-
NORTHWEST NORTH DAKOTA

CITY           SKY/WX    TMP DP  RH WIND       PRES   REMARKS
WILLISTON      PTCLDY    35  29  78 S8        29.95F
6HR MIN TEMP:  35; 6HR MAX TEMP:  37;

MINOT          LGT SNOW  28  24  85 S12       30.04F FOG     WCI  18
MINOT AFB      LGT SNOW  28  28 100 S14       30.03F FOG     WCI  17
$$

NDZ018>021-031>035-040>046-271300-
SOUTHWEST NORTH DAKOTA

CITY           SKY/WX    TMP DP  RH WIND       PRES   REMARKS
BISMARCK       CLOUDY    26  15  63 S13       30.15F WCI  15
6HR MIN TEMP:  25; 6HR MAX TEMP:  26;

DICKINSON      CLOUDY    33  29  85 S18       29.97F
GARRISON         N/A     27  23  85 S15       30.06F WCI  15
6HR MIN TEMP:  27; 6HR MAX TEMP:  29; 6HR PCP:  0.01;

HETTINGER ARPT CLOUDY    32  28  85 S13       30.04F
$$

NDZ004>008-012>016-024-026-027-054-271300-
NORTHEAST NORTH DAKOTA

CITY           SKY/WX    TMP DP  RH WIND       PRES   REMARKS
GRAND FORKS    MOCLDY    13   9  84 S3        30.25F
GRND FRKS AFB  PTCLDY    15  10  80 S5        30.24F WCI   8
DEVILS LAKE    CLOUDY    23  16  74 S10       30.17F WCI  12
$$

NDZ022-023-025-028>030-036>039-047>053-271300-
SOUTHEAST NORTH DAKOTA

CITY           SKY/WX    TMP DP  RH WIND       PRES   REMARKS
FARGO          CLEAR     11   6  81 CALM      30.27F
6HR MIN TEMP:   9; 6HR MAX TEMP:  15;

JAMESTOWN      MOCLDY    20  15  81 S12       30.20F WCI   8
$$



USA.gov is the U.S. government's official web portal to all federal, state and local government web resources and services.